TimeMST,TemperatureF,Dew PointF,Humidity,Sea Level PressureIn,VisibilityMPH,Wind Direction,Wind SpeedMPH,Gust SpeedMPH,PrecipitationIn,Events,Conditions,WindDirDegrees,DateUTC
12:57 AM,54.0,52.0,93,29.99,10.0,Calm,Calm,-,N/A,,Clear,0,2013-07-13 07:57:00
1:57 AM,53.1,52.0,96,29.99,10.0,Calm,Calm,-,N/A,,Clear,0,2013-07-13 08:57:00
2:57 AM,53.1,52.0,96,30.00,10.0,Calm,Calm,-,N/A,,Clear,0,2013-07-13 09:57:00
3:57 AM,52.0,50.0,93,30.02,10.0,Calm,Calm,-,N/A,,Clear,0,2013-07-13 10:57:00
4:57 AM,52.0,50.0,93,30.06,10.0,Calm,Calm,-,N/A,,Clear,0,2013-07-13 11:57:00
5:57 AM,52.0,51.1,97,30.08,8.0,Calm,Calm,-,N/A,,Clear,0,2013-07-13 12:57:00
6:57 AM,59.0,55.0,87,30.06,10.0,Calm,Calm,-,N/A,,Clear,0,2013-07-13 13:57:00
7:57 AM,66.0,55.0,68,30.05,10.0,NE,3.5,-,N/A,,Clear,50,2013-07-13 14:57:00
8:57 AM,69.1,52.0,54,30.05,10.0,ENE,5.8,-,N/A,,Clear,70,2013-07-13 15:57:00
9:57 AM,72.0,51.1,48,30.04,10.0,Calm,Calm,-,N/A,,Clear,0,2013-07-13 16:57:00
10:57 AM,73.9,50.0,43,30.04,10.0,SSE,8.1,-,N/A,,Partly Cloudy,160,2013-07-13 17:57:00
11:57 AM,75.0,50.0,41,30.02,10.0,WSW,5.8,-,N/A,,Mostly Cloudy,240,2013-07-13 18:57:00
12:57 PM,75.9,48.9,38,30.00,10.0,Variable,4.6,-,N/A,,Partly Cloudy,0,2013-07-13 19:57:00
1:57 PM,78.1,51.1,39,29.98,10.0,SW,11.5,-,N/A,,Clear,230,2013-07-13 20:57:00
2:57 PM,77.0,52.0,42,29.99,10.0,West,8.1,17.3,N/A,,Scattered Clouds,280,2013-07-13 21:57:00
3:57 PM,75.9,51.1,42,29.99,10.0,WSW,11.5,19.6,N/A,,Overcast,250,2013-07-13 22:57:00
4:57 PM,77.0,48.9,37,29.97,10.0,West,8.1,17.3,N/A,,Clear,270,2013-07-13 23:57:00
5:57 PM,75.9,50.0,40,29.99,10.0,West,6.9,-,N/A,,Mostly Cloudy,280,2013-07-14 00:57:00
6:57 PM,69.1,51.1,53,30.01,10.0,East,8.1,-,N/A,,Clear,90,2013-07-14 01:57:00
7:57 PM,66.9,52.0,59,29.99,10.0,Calm,Calm,-,N/A,,Clear,0,2013-07-14 02:57:00
8:57 PM,64.0,55.0,73,30.00,10.0,Calm,Calm,-,N/A,,Mostly Cloudy,0,2013-07-14 03:57:00
9:57 PM,64.0,54.0,70,30.00,10.0,WNW,3.5,-,N/A,,Partly Cloudy,290,2013-07-14 04:57:00
10:57 PM,61.0,54.0,78,30.00,10.0,Calm,Calm,-,N/A,,Clear,0,2013-07-14 05:57:00
11:57 PM,60.1,53.1,78,30.00,10.0,Calm,Calm,-,N/A,,Mostly Cloudy,0,2013-07-14 06:57:00